This is the latest recevied weather packets stored in our database for station/object K7NDG. If no packets are shown the sender has not sent any weather packets the latest 10 day(s).
| Time | Temp. | Humidity | Pressure | Rain* | Wind** | Luminosity | Snow |
|---|---|---|---|---|---|---|---|
| 1777770044 | 24.44° C | 56% | 1012.6 hPa | 0 mm | - | 67 W/m² | - |
| 1777769740 | 24.44° C | 55% | 1012.6 hPa | 0 mm | - | 59 W/m² | - |
| 1777769438 | 25° C | 55% | 1012.6 hPa | 0 mm | - | 60 W/m² | - |
| 1777769134 | 25° C | 56% | 1012.7 hPa | 0 mm | - | 67 W/m² | - |
| 1777768832 | 25° C | 55% | 1012.6 hPa | 0 mm | - | 62 W/m² | - |
| 1777768528 | 25.56° C | 55% | 1012.6 hPa | 0 mm | - | 83 W/m² | - |
| 1777768226 | 25.56° C | 54% | 1012.7 hPa | 0 mm | - | 146 W/m² | - |
| 1777767923 | 25.56° C | 54% | 1012.6 hPa | 0 mm | - | 235 W/m² | - |
| 1777767619 | 26.11° C | 53% | 1012.6 hPa | 0 mm | - | 314 W/m² | - |
| 1777767316 | 26.11° C | 54% | 1012.8 hPa | 0 mm | - | 357 W/m² | - |
| 1777767013 | 26.11° C | 55% | 1012.8 hPa | 0 mm | - | 378 W/m² | - |
| 1777766711 | 25.56° C | 54% | 1012.7 hPa | 0 mm | - | 398 W/m² | - |
| 1777766407 | 25.56° C | 54% | 1012.7 hPa | 0 mm | - | 382 W/m² | - |
| 1777766104 | 25.56° C | 56% | 1012.8 hPa | 0 mm | - | 303 W/m² | - |
| 1777765802 | 25.56° C | 53% | 1013.1 hPa | 0 mm | - | 242 W/m² | - |
| 1777765498 | 26.11° C | 53% | 1012.9 hPa | 0 mm | - | 158 W/m² | - |
| 1777765195 | 26.67° C | 52% | 1012.9 hPa | 0 mm | - | 289 W/m² | - |
| 1777764890 | 26.67° C | 50% | 1012.8 hPa | 0 mm | - | 448 W/m² | - |
| 1777764587 | 26.67° C | 52% | 1012.9 hPa | 0 mm | - | 505 W/m² | - |
| 1777764284 | 27.22° C | 50% | 1013 hPa | 0 mm | - | 528 W/m² | - |
| 1777763981 | 27.22° C | 50% | 1013 hPa | 0 mm | - | 568 W/m² | - |
| 1777763678 | 27.22° C | 49% | 1013.3 hPa | 0 mm | - | 585 W/m² | - |
| 1777763376 | 27.22° C | 49% | 1013.3 hPa | 0 mm | - | 533 W/m² | - |
| 1777763074 | 27.22° C | 50% | 1013.5 hPa | 0 mm | - | 630 W/m² | - |
| 1777762772 | 27.22° C | 48% | 1013.2 hPa | 0 mm | - | 625 W/m² | - |
* Rain latest hour (hover to see other rain measurements)
** Current wind speed in m/s (hover to see current wind gust speed)